Regional Weather Roundup
Issued by NWS Charleston, SC

Current Version | Previous Version | Graphics & Text | Print | Product List | Glossary On
Versions: 1 2 3 4 5 6 7 8 9 10 11 12 13 14 15 16 17 18 19 20 21 22 23 24 25 26 27 28 29 30 31 32 33 34 35 36 37 38 39 40 41 42 43 44 45 46 47 48 49 50
000 ASUS42 KCHS 251525 RWRCHS REGIONAL WEATHER ROUNDUP NATIONAL WEATHER SERVICE CHARLESTON SC 1100 AM EDT SAT OCT 25 2014 NOTE: "FAIR" INDICATES FEW OR NO CLOUDS BELOW 12,000 FEET WITH NO SIGNIFICANT WEATHER AND/OR OBSTRUCTIONS TO VISIBILITY. NOT ALL STATIONS ARE QUALITY CONTROLLED BY THE NATIONAL WEATHER SERVICE. USE DATA WITH CAUTION...ESPECIALLY DEWPOINT OBSERVATIONS. SCZ027-030-031-034>040-042>050-251600- ...SOUTH CAROLINA... CITY SKY/WX TMP DP RH WIND PRES REMARKS N CHARLESTON SUNNY 69 49 48 N5 30.02F WATERFRONT PRK N/A 66 N/A N/A N7 N/A FORT JOHNSON NOT AVBL JOHNS ISLAND SUNNY 70 54 56 CALM 30.02S PINOPOLIS NOT AVBL MONCKS CORNER FAIR 66 54 63 N5 30.02F SUMMERVILLE FAIR 66 52 59 NW5 30.03F BEAUFORT MCAS SUNNY 68 52 56 N6 30.03F BEAUFORT ARPT FAIR 68 54 60 N6 30.03S HILTON HEAD IS SUNNY 66 54 63 N6 30.03F GEORGETOWN NOT AVBL WALTERBORO SUNNY 68 45 42 NW5 30.04S ORANGEBURG SUNNY 64 46 52 VRB3 30.05S BARNWELL FAIR 68 48 49 W3 30.05F AIKEN FAIR 64 50 59 N3 30.08F MANNING FAIR 66 48 52 N3 30.04R KINGSTREE NOT AVBL COLUMBIA SUNNY 64 41 42 N6 30.05F SUMTER SUNNY 64 43 46 N5 30.03R FLORENCE SUNNY 64 42 44 N7 30.03S MYRTLE BEACH SUNNY 64 50 59 N6 30.01F N MYRTLE BEACH SUNNY 67 48 50 N6 30.00F $$ GAZ063-065-086>088-099>101-113>116-118-119-134-136>141-150-251600- ...GEORGIA... CITY SKY/WX TMP DP RH WIND PRES REMARKS SAVANNAH ARPT SUNNY 69 49 48 N3 30.04F HUNTER AAF SUNNY 67 50 53 VRB5 30.02S FORT STEWART SUNNY 69 50 50 CALM 30.03S STATESBORO NOT AVBL SYLVANIA SUNNY 72 56 57 CALM 30.05F CLAXTON FAIR 70 52 52 CALM 30.04F THOMSON SUNNY 65 55 68 NE5 30.10F AUGUSTA-BUSH SUNNY 64 45 49 NW3 30.06S AUGUSTA-DANIEL SUNNY 63 45 51 N7 30.07R SWAINSBORO FAIR 70 52 52 MISG 30.06S VIDALIA SUNNY 68 52 56 NE5 30.05S ALMA SUNNY 68 50 52 NW3 30.04S WAYCROSS SUNNY 72 53 52 N3 30.04S JESUP FAIR 72 52 49 NW5 30.04S BRUNSWICK SUNNY 70 52 52 NW6 30.04S SAINT SIMONS SUNNY 66 52 60 NW9 30.03S $$ SCZ027-028-034-036>038-045-046-048>050-GAZ119-141-251600- ...LAKE AND SUPPLEMENTAL COASTAL OBSERVATIONS... STATION/POSITION TIME TEMP WIND PRES WAVE SWELL AIR SEA DIR/SP/G HT/PER HT/PER/DIR (UTC) (F) (DEG/KT/KT) (MB) (FT/S) (FT/S/D) UPR LAKE MARION NOT AVBL WINYAH BAY 1500 64 320/ 3 1016.0S LAKE MURRAY 1500 60 70/ 2/ 3 1017.6S ACE BASIN NERRS 1500 67 10/ 2 1016.0S FORT PULASKI 1500 65 280/ 6/ 7 1017.0S SAPELO ISLAND NOT AVBL $$ ANZ835-935-AMZ111-154-330-350-352-354-374-450-454-472-251600- ...C-MAN AND BUOY OBSERVATIONS... STATION/POSITION TIME TEMP WIND PRES WAVE SWELL AIR SEA DIR/SP/G HT/PER HT/PER/DIR (UTC) (F) (DEG/KT/KT) (MB) (FT/S) (FT/S/D) FOLLY BEACH CMAN 1500 67 340/ 5/ 7 1016.6F BUOY 41004 1500 68 78 360/ 10/ 12 1015.7R 3/10 2/10 BUOY 41008 1500 66 75 330/ 14/ 16 1016.4F 2/ 3 2/100/ 9 5E ST. MARYS GA 1500 75 N/A 2/11 2/ 90/11 FRYING PAN BUOY 1500 66 74 330/ 8/ 10 1016.4F 2/10 2/110/10 BUOY 41025 1500 65 350/ 8/ 10 1014.8F 3/ 9 3/ 40/ 9 CAPE LOOKOUT NC 1500 64 350/ 6/ 8 1015.2F BUOY 41002 1420 72 77 20/ 12/ 14 1013.8S 4/ 9 3/ 30/ 9 BUOY 41010 1500 76 82 360/ 10/ 14 1013.8S 3/ 6 3/110/ 6 BUOY 41012 NOT AVBL ST AUGUSTINE FL 1500 69 360/ 15/ 17 1017.1R CAPERS NEARSHORE NOT AVBL FRIPP NEARSHORE NOT AVBL $$

USA.gov is the U.S. government's official web portal to all federal, state and local government web resources and services.